VERONIKA

Last updated on Tue Jul 01 2025 00:03:45 GMT+0000 (Coordinated Universal Time)

1 58261U 23174F 25181.50916760 .00159812 00000+0 99720-3 0 9995 2 58261 97.4090 269.0353 0003919 261.9339 98.1482 15.76422213 91977
UTC large
Height (km)
Speed (km/s)
/
Latitude / Longitude
Inclination (degrees)
Orbital Period (minutes)
Azimuth
Elevation
Range (km)
Doppler Factor

Next 0 passes for location: London (51.5072 / 0.1276)

Sorry there are no passes over London.